Powrót do katalogu

STARLINK-2334

AktywnyŁącznośćVLEO
NORAD 47792·PAYLOAD·🇺🇸 United States

Wystrzelony Mar 11, 2021 z Cape Canaveral Space Force Station

Loading…

Następne Przeloty (najbliższe 24 godziny)

TLE

ŚwieżeSource: CelesTrak SupGP

Epoka: Sep 15, 2026, 00:55 UTC

1 47792C 21018F   26258.03868056  .00010927  00000+0  35126-3 0  2586
2 47792  53.1577  77.9587 0001024  91.9819 163.3334 15.31708889    10

Śledź STARLINK-2334 w czasie rzeczywistym z AllMySat

Download on the App Store